Terminal Aerodrome Forecast
Issued by NWS Albuquerque, NM

Home | Current Version | Previous Version | Text Only | Print | Product List | Glossary On
Versions: 1 2 3 4 5 6 7 8 9 10 11 12 13 14 15
020
FTUS45 KABQ 260150 AAB
TAFABQ
TAF AMD
KABQ 260150Z 2602/2624 12009G15KT P6SM FEW070 SCT140 BKN200
     FM260230 10017G28KT P6SM VCSH SCT070
     FM260600 VRB10G18KT P6SM VCSH BKN090
     FM261100 VRB06KT P6SM SCT100 BKN140
     FM261400 26005KT P6SM SCT100
     FM262000 25009KT P6SM SCT100 SCT150=

USA.gov is the U.S. government's official web portal to all federal, state and local government web resources and services.